Time,TemperatureF,DewpointF,PressureIn,WindDirection,WindDirectionDegrees,WindSpeedMPH,WindSpeedGustMPH,Humidity,HourlyPrecipIn,Conditions,Clouds,dailyrainin,SoftwareType,DateUTC
2013-02-17 00:01:00,72.0,57.0,-100.00,ENE,64,14.0,26.0,60,0.00,,,0.08,,2013-02-17 10:01:00,
2013-02-17 00:11:00,72.0,57.0,-100.00,ENE,64,14.0,26.0,60,0.00,,,0.08,,2013-02-17 10:11:00,
2013-02-17 00:21:00,72.0,57.0,-100.00,ENE,64,14.0,26.0,60,0.00,,,0.08,,2013-02-17 10:21:00,
2013-02-17 00:31:00,72.0,57.0,-100.00,ENE,64,14.0,26.0,60,0.00,,,0.08,,2013-02-17 10:31:00,
2013-02-17 00:41:00,71.0,57.0,-100.00,ENE,71,13.0,27.0,62,0.00,,,0.08,,2013-02-17 10:41:00,
2013-02-17 01:01:00,71.0,57.0,-100.00,ENE,71,13.0,27.0,62,0.00,,,0.08,,2013-02-17 11:01:00,
2013-02-17 01:11:00,71.0,57.0,-100.00,ENE,71,13.0,27.0,62,0.00,,,0.08,,2013-02-17 11:11:00,
2013-02-17 01:21:00,71.0,57.0,-100.00,ENE,71,13.0,27.0,62,0.00,,,0.08,,2013-02-17 11:21:00,
2013-02-17 01:32:00,71.0,57.0,-100.00,ENE,71,13.0,27.0,62,0.00,,,0.08,,2013-02-17 11:32:00,
2013-02-17 01:41:00,71.0,58.0,-100.00,ENE,61,13.0,24.0,64,0.00,,,0.01,,2013-02-17 11:41:00,
2013-02-17 02:03:00,71.0,58.0,-100.00,ENE,61,13.0,24.0,64,0.00,,,0.01,,2013-02-17 12:03:00,
2013-02-17 02:11:00,71.0,58.0,-100.00,ENE,61,13.0,24.0,64,0.00,,,0.01,,2013-02-17 12:11:00,
2013-02-17 02:22:00,71.0,58.0,-100.00,ENE,61,13.0,24.0,64,0.00,,,0.01,,2013-02-17 12:22:00,
2013-02-17 02:31:00,71.0,58.0,-100.00,ENE,61,13.0,24.0,64,0.00,,,0.01,,2013-02-17 12:31:00,
2013-02-17 02:41:00,71.0,56.0,-100.00,ENE,61,11.0,20.0,60,0.00,,,0.01,,2013-02-17 12:41:00,
2013-02-17 03:02:00,71.0,56.0,-100.00,ENE,61,11.0,20.0,60,0.00,,,0.01,,2013-02-17 13:02:00,
2013-02-17 03:12:00,71.0,56.0,-100.00,ENE,61,11.0,20.0,60,0.00,,,0.01,,2013-02-17 13:12:00,
2013-02-17 03:21:00,71.0,56.0,-100.00,ENE,61,11.0,20.0,60,0.00,,,0.01,,2013-02-17 13:21:00,
2013-02-17 03:32:00,71.0,56.0,-100.00,ENE,61,11.0,20.0,60,0.00,,,0.01,,2013-02-17 13:32:00,
2013-02-17 03:41:00,71.0,57.0,-100.00,ENE,66,14.0,26.0,61,0.00,,,0.01,,2013-02-17 13:41:00,
2013-02-17 04:01:00,71.0,57.0,-100.00,ENE,66,14.0,26.0,61,0.00,,,0.01,,2013-02-17 14:01:00,
2013-02-17 04:11:00,71.0,57.0,-100.00,ENE,66,14.0,26.0,61,0.00,,,0.01,,2013-02-17 14:11:00,
2013-02-17 04:21:00,71.0,57.0,-100.00,ENE,66,14.0,26.0,61,0.00,,,0.01,,2013-02-17 14:21:00,
2013-02-17 04:32:00,71.0,57.0,-100.00,ENE,66,14.0,26.0,61,0.00,,,0.01,,2013-02-17 14:32:00,
2013-02-17 04:41:00,71.0,56.0,-100.00,ENE,69,12.0,25.0,60,0.00,,,0.01,,2013-02-17 14:41:00,
2013-02-17 05:01:00,71.0,56.0,-100.00,ENE,69,12.0,25.0,60,0.00,,,0.01,,2013-02-17 15:01:00,
2013-02-17 05:11:00,71.0,56.0,-100.00,ENE,69,12.0,25.0,60,0.00,,,0.01,,2013-02-17 15:11:00,
2013-02-17 05:21:00,71.0,56.0,-100.00,ENE,69,12.0,25.0,60,0.00,,,0.01,,2013-02-17 15:21:00,
2013-02-17 05:31:00,71.0,56.0,-100.00,ENE,69,12.0,25.0,60,0.00,,,0.01,,2013-02-17 15:31:00,
2013-02-17 05:41:00,71.0,59.0,-100.00,ENE,68,10.0,22.0,65,0.00,,,0.01,,2013-02-17 15:41:00,
2013-02-17 06:01:00,71.0,59.0,-100.00,ENE,68,10.0,22.0,65,0.00,,,0.01,,2013-02-17 16:01:00,
2013-02-17 06:11:00,71.0,59.0,-100.00,ENE,68,10.0,22.0,65,0.00,,,0.01,,2013-02-17 16:11:00,
2013-02-17 06:21:00,71.0,59.0,-100.00,ENE,68,10.0,22.0,65,0.00,,,0.01,,2013-02-17 16:21:00,
2013-02-17 06:31:00,71.0,59.0,-100.00,ENE,68,10.0,22.0,65,0.00,,,0.01,,2013-02-17 16:31:00,
2013-02-17 06:41:00,70.0,60.0,-100.00,ENE,62,11.0,27.0,70,0.00,,,0.01,,2013-02-17 16:41:00,
2013-02-17 07:02:00,70.0,60.0,-100.00,ENE,62,11.0,27.0,70,0.00,,,0.01,,2013-02-17 17:02:00,
2013-02-17 07:11:00,70.0,60.0,-100.00,ENE,62,11.0,27.0,70,0.00,,,0.01,,2013-02-17 17:11:00,
2013-02-17 07:21:00,70.0,60.0,-100.00,ENE,62,11.0,27.0,70,0.00,,,0.01,,2013-02-17 17:21:00,
2013-02-17 07:31:00,70.0,60.0,-100.00,ENE,62,11.0,27.0,70,0.00,,,0.01,,2013-02-17 17:31:00,
2013-02-17 07:41:00,70.0,61.0,-100.00,ENE,71,12.0,23.0,72,0.00,,,0.00,,2013-02-17 17:41:00,
2013-02-17 08:01:00,70.0,61.0,-100.00,ENE,71,12.0,23.0,72,0.00,,,0.00,,2013-02-17 18:01:00,
2013-02-17 08:11:00,70.0,61.0,-100.00,ENE,71,12.0,23.0,72,0.00,,,0.00,,2013-02-17 18:11:00,
2013-02-17 08:21:00,70.0,61.0,-100.00,ENE,71,12.0,23.0,72,0.00,,,0.00,,2013-02-17 18:21:00,
2013-02-17 08:33:00,70.0,61.0,-100.00,ENE,71,12.0,23.0,72,0.00,,,0.00,,2013-02-17 18:33:00,
2013-02-17 08:41:00,72.0,58.0,-100.00,ENE,69,12.0,24.0,62,0.00,,,0.00,,2013-02-17 18:41:00,
2013-02-17 09:01:00,72.0,58.0,-100.00,ENE,69,12.0,24.0,62,0.00,,,0.00,,2013-02-17 19:01:00,
2013-02-17 09:11:00,72.0,58.0,-100.00,ENE,69,12.0,24.0,62,0.00,,,0.00,,2013-02-17 19:11:00,
2013-02-17 09:21:00,72.0,58.0,-100.00,ENE,69,12.0,24.0,62,0.00,,,0.00,,2013-02-17 19:21:00,
2013-02-17 09:32:00,72.0,58.0,-100.00,ENE,69,12.0,24.0,62,0.00,,,0.00,,2013-02-17 19:32:00,
2013-02-17 09:41:00,73.0,60.0,-100.00,ENE,68,13.0,24.0,63,0.00,,,0.00,,2013-02-17 19:41:00,
2013-02-17 10:01:00,73.0,60.0,-100.00,ENE,68,13.0,24.0,63,0.00,,,0.00,,2013-02-17 20:01:00,
2013-02-17 10:11:00,73.0,60.0,-100.00,ENE,68,13.0,24.0,63,0.00,,,0.00,,2013-02-17 20:11:00,
2013-02-17 10:21:00,73.0,60.0,-100.00,ENE,68,13.0,24.0,63,0.00,,,0.00,,2013-02-17 20:21:00,
2013-02-17 10:31:00,73.0,60.0,-100.00,ENE,68,13.0,24.0,63,0.00,,,0.00,,2013-02-17 20:31:00,
2013-02-17 10:41:00,78.0,62.0,-100.00,ENE,60,15.0,29.0,58,0.00,,,0.00,,2013-02-17 20:41:00,
2013-02-17 11:01:00,78.0,62.0,-100.00,ENE,60,15.0,29.0,58,0.00,,,0.00,,2013-02-17 21:01:00,
2013-02-17 11:11:00,78.0,62.0,-100.00,ENE,60,15.0,29.0,58,0.00,,,0.00,,2013-02-17 21:11:00,
2013-02-17 11:21:00,78.0,62.0,-100.00,ENE,60,15.0,29.0,58,0.00,,,0.00,,2013-02-17 21:21:00,
2013-02-17 11:31:00,78.0,62.0,-100.00,ENE,60,15.0,29.0,58,0.00,,,0.00,,2013-02-17 21:31:00,
2013-02-17 11:41:00,78.0,58.0,-100.00,NE,55,13.0,27.0,50,0.00,,,0.00,,2013-02-17 21:41:00,
2013-02-17 12:01:00,78.0,58.0,-100.00,NE,55,13.0,27.0,50,0.00,,,0.00,,2013-02-17 22:01:00,
2013-02-17 12:12:00,78.0,58.0,-100.00,NE,55,13.0,27.0,50,0.00,,,0.00,,2013-02-17 22:12:00,
2013-02-17 12:21:00,78.0,58.0,-100.00,NE,55,13.0,27.0,50,0.00,,,0.00,,2013-02-17 22:21:00,
2013-02-17 12:32:00,78.0,58.0,-100.00,NE,55,13.0,27.0,50,0.00,,,0.00,,2013-02-17 22:32:00,
2013-02-17 12:41:00,80.0,60.0,-100.00,NE,54,14.0,26.0,51,0.00,,,0.00,,2013-02-17 22:41:00,
2013-02-17 13:02:00,80.0,60.0,-100.00,NE,54,14.0,26.0,51,0.00,,,0.00,,2013-02-17 23:02:00,
2013-02-17 13:11:00,80.0,60.0,-100.00,NE,54,14.0,26.0,51,0.00,,,0.00,,2013-02-17 23:11:00,
2013-02-17 13:21:00,80.0,60.0,-100.00,NE,54,14.0,26.0,51,0.00,,,0.00,,2013-02-17 23:21:00,
2013-02-17 13:31:00,80.0,60.0,-100.00,NE,54,14.0,26.0,51,0.00,,,0.00,,2013-02-17 23:31:00,
2013-02-17 13:41:00,80.0,57.0,-100.00,NE,54,17.0,29.0,46,0.00,,,0.00,,2013-02-17 23:41:00,
2013-02-17 14:01:00,80.0,57.0,-100.00,NE,54,17.0,29.0,46,0.00,,,0.00,,2013-02-18 00:01:00,
2013-02-17 14:11:00,80.0,57.0,-100.00,NE,54,17.0,29.0,46,0.00,,,0.00,,2013-02-18 00:11:00,
2013-02-17 14:22:00,80.0,57.0,-100.00,NE,54,17.0,29.0,46,0.00,,,0.00,,2013-02-18 00:22:00,
2013-02-17 14:31:00,80.0,57.0,-100.00,NE,54,17.0,29.0,46,0.00,,,0.00,,2013-02-18 00:31:00,
2013-02-17 14:41:00,79.0,59.0,-100.00,ENE,57,17.0,29.0,50,0.00,,,0.00,,2013-02-18 00:41:00,
2013-02-17 15:01:00,79.0,59.0,-100.00,ENE,57,17.0,29.0,50,0.00,,,0.00,,2013-02-18 01:01:00,
2013-02-17 15:11:00,79.0,59.0,-100.00,ENE,57,17.0,29.0,50,0.00,,,0.00,,2013-02-18 01:11:00,
2013-02-17 15:21:00,79.0,59.0,-100.00,ENE,57,17.0,29.0,50,0.00,,,0.00,,2013-02-18 01:21:00,
2013-02-17 15:31:00,79.0,59.0,-100.00,ENE,57,17.0,29.0,50,0.00,,,0.00,,2013-02-18 01:31:00,
2013-02-17 15:41:00,79.0,59.0,-100.00,ENE,60,15.0,30.0,50,0.00,,,0.00,,2013-02-18 01:41:00,
2013-02-17 16:01:00,79.0,59.0,-100.00,ENE,60,15.0,30.0,50,0.00,,,0.00,,2013-02-18 02:01:00,
2013-02-17 16:11:00,79.0,59.0,-100.00,ENE,60,15.0,30.0,50,0.00,,,0.00,,2013-02-18 02:11:00,
2013-02-17 16:21:00,79.0,59.0,-100.00,ENE,60,15.0,30.0,50,0.00,,,0.00,,2013-02-18 02:21:00,
2013-02-17 16:31:00,79.0,59.0,-100.00,ENE,60,15.0,30.0,50,0.00,,,0.00,,2013-02-18 02:31:00,
2013-02-17 16:41:00,77.0,56.0,-100.00,ENE,61,13.0,28.0,49,0.00,,,0.00,,2013-02-18 02:41:00,
2013-02-17 17:01:00,77.0,56.0,-100.00,ENE,61,13.0,28.0,49,0.00,,,0.00,,2013-02-18 03:01:00,
2013-02-17 17:11:00,77.0,56.0,-100.00,ENE,61,13.0,28.0,49,0.00,,,0.00,,2013-02-18 03:11:00,
2013-02-17 17:21:00,77.0,56.0,-100.00,ENE,61,13.0,28.0,49,0.00,,,0.00,,2013-02-18 03:21:00,
2013-02-17 17:31:00,77.0,56.0,-100.00,ENE,61,13.0,28.0,49,0.00,,,0.00,,2013-02-18 03:31:00,
2013-02-17 17:41:00,75.0,56.0,-100.00,ENE,66,11.0,22.0,52,0.00,,,0.00,,2013-02-18 03:41:00,
2013-02-17 18:01:00,75.0,56.0,-100.00,ENE,66,11.0,22.0,52,0.00,,,0.00,,2013-02-18 04:01:00,
2013-02-17 18:11:00,75.0,56.0,-100.00,ENE,66,11.0,22.0,52,0.00,,,0.00,,2013-02-18 04:11:00,
2013-02-17 18:21:00,75.0,56.0,-100.00,ENE,66,11.0,22.0,52,0.00,,,0.00,,2013-02-18 04:21:00,
2013-02-17 18:32:00,75.0,56.0,-100.00,ENE,66,11.0,22.0,52,0.00,,,0.00,,2013-02-18 04:32:00,
2013-02-17 18:41:00,73.0,56.0,-100.00,ENE,61,15.0,25.0,55,0.00,,,0.00,,2013-02-18 04:41:00,
2013-02-17 19:01:00,73.0,56.0,-100.00,ENE,61,15.0,25.0,55,0.00,,,0.00,,2013-02-18 05:01:00,
2013-02-17 19:11:00,73.0,56.0,-100.00,ENE,61,15.0,25.0,55,0.00,,,0.00,,2013-02-18 05:11:00,
2013-02-17 19:21:00,73.0,56.0,-100.00,ENE,61,15.0,25.0,55,0.00,,,0.00,,2013-02-18 05:21:00,
2013-02-17 19:31:00,73.0,56.0,-100.00,ENE,61,15.0,25.0,55,0.00,,,0.00,,2013-02-18 05:31:00,
2013-02-17 19:41:00,72.0,57.0,-100.00,NE,55,14.0,27.0,60,0.00,,,0.00,,2013-02-18 05:41:00,
2013-02-17 20:02:00,72.0,57.0,-100.00,NE,55,14.0,27.0,60,0.00,,,0.00,,2013-02-18 06:02:00,
2013-02-17 20:11:00,72.0,57.0,-100.00,NE,55,14.0,27.0,60,0.00,,,0.00,,2013-02-18 06:11:00,
2013-02-17 20:21:00,72.0,57.0,-100.00,NE,55,14.0,27.0,60,0.00,,,0.00,,2013-02-18 06:21:00,
2013-02-17 20:31:00,72.0,57.0,-100.00,NE,55,14.0,27.0,60,0.00,,,0.00,,2013-02-18 06:31:00,
2013-02-17 20:41:00,72.0,56.0,-100.00,ENE,63,14.0,26.0,58,0.00,,,0.00,,2013-02-18 06:41:00,
2013-02-17 21:01:00,72.0,56.0,-100.00,ENE,63,14.0,26.0,58,0.00,,,0.00,,2013-02-18 07:01:00,
2013-02-17 21:11:00,72.0,56.0,-100.00,ENE,63,14.0,26.0,58,0.00,,,0.00,,2013-02-18 07:11:00,
2013-02-17 21:21:00,72.0,56.0,-100.00,ENE,63,14.0,26.0,58,0.00,,,0.00,,2013-02-18 07:21:00,
2013-02-17 21:31:00,72.0,56.0,-100.00,ENE,63,14.0,26.0,58,0.00,,,0.00,,2013-02-18 07:31:00,
2013-02-17 21:41:00,72.0,58.0,-100.00,ENE,71,12.0,31.0,61,0.00,,,0.00,,2013-02-18 07:41:00,
2013-02-17 22:01:00,72.0,58.0,-100.00,ENE,71,12.0,31.0,61,0.00,,,0.00,,2013-02-18 08:01:00,
2013-02-17 22:11:00,72.0,58.0,-100.00,ENE,71,12.0,31.0,61,0.00,,,0.00,,2013-02-18 08:11:00,
2013-02-17 22:21:00,72.0,58.0,-100.00,ENE,71,12.0,31.0,61,0.00,,,0.00,,2013-02-18 08:21:00,
2013-02-17 22:32:00,72.0,58.0,-100.00,ENE,71,12.0,31.0,61,0.00,,,0.00,,2013-02-18 08:32:00,
2013-02-17 22:41:00,72.0,58.0,-100.00,ENE,69,14.0,25.0,61,0.00,,,0.00,,2013-02-18 08:41:00,
2013-02-17 23:02:00,72.0,58.0,-100.00,ENE,69,14.0,25.0,61,0.00,,,0.00,,2013-02-18 09:02:00,
2013-02-17 23:11:00,72.0,58.0,-100.00,ENE,69,14.0,25.0,61,0.00,,,0.00,,2013-02-18 09:11:00,
2013-02-17 23:22:00,72.0,58.0,-100.00,ENE,69,14.0,25.0,61,0.00,,,0.00,,2013-02-18 09:22:00,
2013-02-17 23:31:00,72.0,58.0,-100.00,ENE,69,14.0,25.0,61,0.00,,,0.00,,2013-02-18 09:31:00,
2013-02-17 23:41:00,71.0,58.0,-100.00,ENE,69,12.0,25.0,64,0.00,,,0.00,,2013-02-18 09:41:00,